DW7394 Weather Reports


Display with metric or nautical units.
time (UTC)temp
F
wind
direction
speed
MPH
gust
MPH
rain 1hr
in
rain 24hr
in
rain mn
in
humidity
%
barometer
mb
20260902202015 92 290 7.0 19.0 0.00 0.00 0.00 59 1012.7
20260902201529 92 356 8.0 19.0 0.00 0.00 0.00 58 1012.8
20260902201014 92 290 9.0 22.0 0.00 0.00 0.00 59 1012.8
20260902200514 92 236 10.0 22.0 0.00 0.00 0.00 60 1012.9
20260902200013 92 201 8.0 25.0 0.00 0.00 0.00 60 1012.9
20260902195511 92 218 13.0 25.0 0.00 0.00 0.00 59 1012.9
20260902195010 92 243 11.0 20.0 0.00 0.00 0.00 59 1013.0
20260902194510 92 197 10.0 20.0 0.00 0.00 0.00 59 1013.0
20260902194009 92 245 10.0 18.0 0.00 0.00 0.00 60 1013.1
20260902193509 92 217 6.0 17.0 0.00 0.00 0.00 60 1013.1
20260902193007 92 195 8.0 17.0 0.00 0.00 0.00 60 1013.2
20260902192506 92 356 4.0 18.0 0.00 0.00 0.00 60 1013.2
20260902192005 92 238 8.0 19.0 0.00 0.00 0.00 60 1013.3
20260902191513 92 264 5.0 19.0 0.00 0.00 0.00 58 1013.4
20260902191004 92 220 9.0 17.0 0.00 0.00 0.00 59 1013.4
20260902190506 92 200 5.0 17.0 0.00 0.00 0.00 59 1013.4
20260902190003 93 228 6.0 14.0 0.00 0.00 0.00 58 1013.4
20260902185500 93 226 8.0 19.0 0.00 0.00 0.00 57 1013.5
20260902185100 93 220 8.0 19.0 0.00 0.00 0.00 57 1013.6
20260902184604 93 295 4.0 14.0 0.00 0.00 0.00 58 1013.5
20260902184100 93 345 5.0 17.0 0.00 0.00 0.00 57 1013.5
20260902183557 93 189 11.0 18.0 0.00 0.00 0.00 57 1013.7
20260902183105 94 356 5.0 19.0 0.00 0.00 0.00 56 1013.7
20260902182556 94 273 8.0 17.0 0.00 0.00 0.00 57 1013.8
20260902182055 93 230 6.0 19.0 0.00 0.00 0.00 57 1013.9
20260902181556 93 228 11.0 19.0 0.00 0.00 0.00 58 1013.9
20260902181053 94 156 4.0 14.0 0.00 0.00 0.00 57 1013.9
20260902180553 93 252 4.0 16.0 0.00 0.00 0.00 58 1013.9
20260902180052 93 241 5.0 18.0 0.00 0.00 0.00 57 1014.0
20260902175552 93 264 11.0 18.0 0.00 0.00 0.00 57 1014.0
20260902175053 92 182 4.0 13.0 0.00 0.00 0.00 57 1014.1
20260902174553 92 229 5.0 16.0 0.00 0.00 0.00 58 1014.2
20260902174048 92 240 7.0 16.0 0.00 0.00 0.00 58 1014.3
20260902173547 92 234 7.0 15.0 0.00 0.00 0.00 58 1014.4
20260902173108 92 276 5.0 15.0 0.00 0.00 0.00 59 1014.4
20260902172545 91 248 8.0 15.0 0.00 0.00 0.00 59 1014.5
20260902172044 91 163 9.0 15.0 0.00 0.00 0.00 59 1014.5
20260902171545 91 234 6.0 13.0 0.00 0.00 0.00 61 1014.6
20260902171042 90 313 7.0 13.0 0.00 0.00 0.00 62 1014.6
20260902170542 90 356 3.0 12.0 0.00 0.00 0.00 62 1014.7
20260902170040 90 220 5.0 15.0 0.00 0.00 0.00 62 1014.8
20260902165539 90 212 5.0 15.0 0.00 0.00 0.00 63 1014.7
20260902165042 89 189 9.0 15.0 0.00 0.00 0.00 64 1014.7
20260902164537 89 271 4.0 13.0 0.00 0.00 0.00 65 1014.7
20260902164035 88 214 5.0 13.0 0.00 0.00 0.00 67 1014.8
20260902163534 88 245 4.0 12.0 0.00 0.00 0.00 66 1014.8
20260902163033 88 232 5.0 12.0 0.00 0.00 0.00 66 1014.9
20260902162532 87 218 7.0 11.0 0.00 0.00 0.00 67 1014.9
20260902162032 87 160 5.0 11.0 0.00 0.00 0.00 67 1015.0
20260902161530 87 215 4.0 11.0 0.00 0.00 0.00 68 1015.0
20260902161029 86 212 3.0 11.0 0.00 0.00 0.00 68 1015.1
20260902160532 86 173 4.0 11.0 0.00 0.00 0.00 68 1015.2
20260902160044 86 221 3.0 12.0 0.00 0.00 0.00 69 1015.2
20260902155530 86 235 6.0 12.0 0.00 0.00 0.00 69 1015.3
20260902155127 86 182 6.0 10.0 0.00 0.00 0.00 70 1015.3
20260902154539 85 230 5.0 10.0 0.00 0.00 0.00 70 1015.2
20260902154026 85 264 5.0 11.0 0.00 0.00 0.00 69 1015.4
20260902153524 85 235 3.0 11.0 0.00 0.00 0.00 69 1015.3
20260902153035 85 257 3.0 10.0 0.00 0.00 0.00 69 1015.3
20260902152521 85 220 5.0 10.0 0.00 0.00 0.00 70 1015.4
20260902152022 85 241 3.0 8.0 0.00 0.00 0.00 70 1015.4
20260902151521 85 233 5.0 8.0 0.00 0.00 0.00 70 1015.3
20260902151020 85 216 3.0 12.0 0.00 0.00 0.00 70 1015.3
20260902150518 85 245 7.0 14.0 0.00 0.00 0.00 69 1015.2
20260902150018 85 215 4.0 15.0 0.00 0.00 0.00 70 1015.2
20260902145517 85 162 6.0 15.0 0.00 0.00 0.00 71 1015.3
20260902145019 85 217 6.0 13.0 0.00 0.00 0.00 71 1015.3
20260902144515 84 295 6.0 13.0 0.00 0.00 0.00 71 1015.2
20260902144013 84 250 5.0 14.0 0.00 0.00 0.00 72 1015.2
20260902143512 84 252 3.0 14.0 0.00 0.00 0.00 73 1015.0
20260902143011 83 254 4.0 12.0 0.00 0.00 0.00 74 1015.0
20260902142512 83 227 5.0 14.0 0.00 0.00 0.00 75 1014.9
20260902142013 83 281 5.0 14.0 0.00 0.00 0.00 76 1014.9
20260902141507 82 301 5.0 11.0 0.00 0.00 0.00 76 1014.8
20260902141007 82 252 3.0 11.0 0.00 0.00 0.00 76 1014.9
20260902140505 82 239 6.0 15.0 0.00 0.00 0.00 77 1014.9
20260902140003 81 248 4.0 15.0 0.00 0.00 0.00 77 1014.9
20260902135502 81 213 6.0 13.0 0.00 0.00 0.00 78 1014.9
20260902135001 81 233 4.0 14.0 0.00 0.00 0.00 78 1014.8
20260902134603 81 245 8.0 14.0 0.00 0.00 0.00 78 1014.8
20260902134059 80 257 6.0 16.0 0.00 0.00 0.00 78 1014.7
20260902133559 80 240 8.0 16.0 0.00 0.00 0.00 78 1014.8
20260902133100 80 235 8.0 13.0 0.00 0.00 0.00 79 1014.8
20260902132601 80 199 5.0 19.0 0.00 0.00 0.00 79 1014.8
20260902132056 80 278 8.0 19.0 0.00 0.00 0.00 79 1014.8
20260902131603 80 239 11.0 18.0 0.00 0.00 0.00 79 1014.9
20260902131058 79 208 7.0 15.0 0.00 0.00 0.00 80 1014.8
20260902130555 79 264 6.0 12.0 0.00 0.00 0.00 80 1014.8
20260902130053 79 222 7.0 14.0 0.00 0.00 0.00 80 1014.7
20260902125552 79 178 8.0 14.0 0.00 0.00 0.00 81 1014.7
20260902125052 79 236 6.0 13.0 0.00 0.00 0.00 81 1014.8
20260902124603 78 243 7.0 14.0 0.00 0.00 0.00 82 1014.7
20260902124049 78 208 7.0 16.0 0.00 0.00 0.00 82 1014.8
20260902123552 78 248 8.0 16.0 0.00 0.00 0.00 83 1014.7
20260902123123 77 239 8.0 14.0 0.00 0.00 0.00 83 1014.7
20260902122549 77 242 7.0 13.0 0.00 0.00 0.00 83 1014.7
20260902122046 77 226 7.0 16.0 0.00 0.00 0.00 83 1014.7
20260902121550 77 245 7.0 16.0 0.00 0.00 0.00 84 1014.7
20260902121044 77 213 6.0 13.0 0.00 0.00 0.00 84 1014.7
20260902120536 77 198 5.0 13.0 0.00 0.00 0.00 84 1014.7
20260902120036 76 238 7.0 13.0 0.00 0.00 0.00 84 1014.7
20260902115543 76 235 7.0 13.0 0.00 0.00 0.00 84 1014.6
20260902115040 76 257 7.0 14.0 0.00 0.00 0.00 84 1014.5
20260902114542 76 236 6.0 14.0 0.00 0.00 0.00 84 1014.4
20260902114035 76 243 7.0 13.0 0.00 0.00 0.00 84 1014.3
20260902113536 76 233 6.0 14.0 0.00 0.00 0.00 84 1014.2
20260902113035 76 239 6.0 14.0 0.00 0.00 0.00 84 1014.2
20260902112534 76 283 7.0 12.0 0.00 0.00 0.00 84 1014.1
20260902112036 76 264 5.0 12.0 0.00 0.00 0.00 85 1014.1
20260902111543 76 225 6.0 14.0 0.00 0.00 0.00 85 1014.1
20260902111033 76 196 7.0 14.0 0.00 0.00 0.00 85 1014.0
20260902110532 76 243 5.0 13.0 0.00 0.00 0.00 85 1014.0
20260902110031 76 224 6.0 20.0 0.00 0.00 0.00 85 1014.0
20260902105533 76 317 5.0 20.0 0.00 0.00 0.00 85 1014.0
20260902105031 76 209 8.0 16.0 0.00 0.00 0.00 85 1014.0
20260902104533 76 245 8.0 13.0 0.00 0.00 0.00 85 1014.0
20260902104031 76 218 7.0 14.0 0.00 0.00 0.00 85 1013.9
20260902103530 76 197 8.0 14.0 0.00 0.00 0.00 85 1014.0
20260902103032 76 231 5.0 11.0 0.00 0.00 0.00 85 1013.9
20260902102534 76 208 6.0 11.0 0.00 0.00 0.00 85 1014.0
20260902102029 76 230 6.0 13.0 0.00 0.00 0.00 85 1014.0
20260902101529 76 202 4.0 14.0 0.00 0.00 0.00 85 1014.0
20260902101028 76 217 7.0 14.0 0.00 0.00 0.00 85 1013.9
20260902100527 76 221 6.0 14.0 0.00 0.00 0.00 84 1014.0
20260902100031 76 237 7.0 14.0 0.00 0.00 0.00 84 1013.9
20260902095526 76 231 4.0 12.0 0.00 0.00 0.00 84 1013.9
20260902095026 76 243 6.0 13.0 0.00 0.00 0.00 84 1014.0
20260902094525 76 188 5.0 15.0 0.00 0.00 0.00 84 1013.9
20260902094028 76 220 7.0 15.0 0.00 0.00 0.00 84 1013.8
20260902093523 76 201 6.0 14.0 0.00 0.00 0.00 84 1013.7
20260902093024 76 192 6.0 13.0 0.00 0.00 0.00 84 1014.0
20260902092523 76 205 5.0 12.0 0.00 0.00 0.00 84 1014.1
20260902092023 76 209 6.0 12.0 0.00 0.00 0.00 84 1014.1
20260902091523 76 220 6.0 12.0 0.00 0.00 0.00 84 1014.1
20260902091029 76 192 6.0 11.0 0.00 0.00 0.00 83 1014.0
20260902090523 77 209 5.0 11.0 0.00 0.00 0.00 83 1014.1
20260902090033 77 218 7.0 11.0 0.00 0.00 0.00 83 1014.1
20260902085522 77 227 4.0 12.0 0.00 0.00 0.00 83 1014.2
20260902085021 77 217 6.0 12.0 0.00 0.00 0.00 83 1014.3
20260902084520 77 254 6.0 11.0 0.00 0.00 0.00 83 1014.3
20260902084020 77 221 5.0 13.0 0.00 0.00 0.00 83 1014.2
20260902083523 77 232 6.0 13.0 0.00 0.00 0.00 83 1014.0
20260902083020 77 204 5.0 12.0 0.00 0.00 0.00 83 1014.1
20260902082520 77 222 4.0 14.0 0.00 0.00 0.00 82 1014.1
20260902082019 77 211 8.0 14.0 0.00 0.00 0.00 82 1014.2
20260902081519 77 247 5.0 14.0 0.00 0.00 0.00 82 1014.2
20260902081018 77 218 6.0 12.0 0.00 0.00 0.00 82 1014.1
20260902080618 77 225 7.0 12.0 0.00 0.00 0.00 82 1014.0
20260902080017 77 218 6.0 13.0 0.00 0.00 0.00 82 1014.0
20260902075517 77 208 6.0 13.0 0.00 0.00 0.00 82 1014.0
20260902075016 77 208 4.0 13.0 0.00 0.00 0.00 82 1014.0
20260902074516 76 199 7.0 11.0 0.00 0.00 0.00 82 1013.9
20260902074014 76 171 4.0 10.0 0.00 0.00 0.00 82 1014.0
20260902073515 76 227 4.0 10.0 0.00 0.00 0.00 81 1014.0
20260902073015 75 201 2.0 8.0 0.00 0.00 0.00 81 1014.0
20260902072514 75 238 4.0 8.0 0.00 0.00 0.00 81 1014.0
20260902072014 75 208 2.0 6.0 0.00 0.00 0.00 80 1014.0
20260902071513 75 185 2.0 6.0 0.00 0.00 0.00 80 1014.1
20260902071013 75 211 1.0 5.0 0.00 0.00 0.00 80 1014.2
20260902070514 75 192 1.0 5.0 0.00 0.00 0.00 80 1014.2
20260902070012 75 41 2.0 5.0 0.00 0.00 0.00 80 1014.2
20260902065512 74 142 1.0 5.0 0.00 0.00 0.00 80 1014.2
20260902065015 74 188 2.0 6.0 0.00 0.00 0.00 80 1014.2
20260902064518 74 133 2.0 6.0 0.00 0.00 0.00 80 1014.2
20260902064010 75 41 1.0 4.0 0.00 0.00 0.00 80 1014.2
20260902063509 75 173 0.0 4.0 0.00 0.00 0.00 80 1014.3
20260902063009 75 147 0.0 3.0 0.00 0.00 0.00 80 1014.4
20260902062508 75 173 1.0 3.0 0.00 0.00 0.00 80 1014.4
20260902062010 75 309 0.0 3.0 0.00 0.00 0.00 80 1014.4
20260902061508 75 151 1.0 4.0 0.00 0.00 0.00 80 1014.4
20260902061008 75 137 2.0 4.0 0.00 0.00 0.00 80 1014.5
20260902060512 75 41 0.0 4.0 0.00 0.00 0.00 80 1014.6
20260902060008 75 218 1.0 4.0 0.00 0.00 0.00 80 1014.5
20260902055511 75 185 1.0 4.0 0.00 0.00 0.00 80 1014.5
20260902055006 75 201 1.0 4.0 0.00 0.00 0.00 80 1014.5
20260902054609 75 211 2.0 4.0 0.00 0.00 0.00 80 1014.5
20260902054004 75 213 0.0 4.0 0.00 0.00 0.00 80 1014.4
20260902053504 75 264 1.0 5.0 0.00 0.00 0.00 80 1014.4
20260902053006 75 208 1.0 5.0 0.00 0.00 0.00 80 1014.4
20260902052504 75 232 1.0 5.0 0.00 0.00 0.00 80 1014.3
20260902052006 75 205 2.0 4.0 0.00 0.00 0.00 80 1014.3
20260902051502 75 173 1.0 4.0 0.00 0.00 0.00 79 1014.4
20260902051002 75 192 1.0 2.0 0.00 0.00 0.00 79 1014.4
20260902050502 76 130 0.0 2.0 0.00 0.00 0.00 79 1014.4
20260902050100 76 84 0.0 3.0 0.00 0.00 0.00 79 1014.3
20260902045559 76 173 1.0 3.0 0.00 0.00 0.00 79 1014.3
20260902045059 76 192 1.0 3.0 0.00 0.00 0.00 79 1014.3
20260902044558 76 192 1.0 3.0 0.00 0.00 0.00 78 1014.3
20260902044055 76 103 0.0 2.0 0.00 0.00 0.00 78 1014.2
20260902043555 76 192 0.0 2.0 0.00 0.00 0.00 78 1014.2
20260902043056 76 147 0.0 2.0 0.00 0.00 0.00 78 1014.1
20260902042553 77 264 1.0 3.0 0.00 0.00 0.00 79 1014.1
20260902042051 77 84 1.0 6.0 0.00 0.00 0.00 79 1014.0
20260902041558 77 245 4.0 6.0 0.00 0.00 0.00 79 1013.9
20260902041050 77 241 1.0 6.0 0.00 0.00 0.00 79 1013.9
20260902040550 77 232 3.0 6.0 0.00 0.00 0.00 79 1013.9
20260902040051 77 227 2.0 6.0 0.00 0.00 0.00 79 1013.8
20260902035549 77 243 2.0 7.0 0.00 0.00 0.00 79 1013.9
20260902035048 77 15 2.0 9.0 0.00 0.00 0.00 79 1014.0
20260902034549 77 290 3.0 9.0 0.00 0.00 0.00 79 1014.0
20260902034047 78 231 3.0 9.0 0.00 0.00 0.00 79 1014.0
20260902033547 78 303 5.0 9.0 0.00 0.00 0.00 79 1014.1
20260902033048 78 278 4.0 10.0 0.00 0.00 0.00 79 1014.1
20260902032547 78 233 6.0 11.0 0.00 0.00 0.00 79 1014.2
20260902032047 78 304 5.0 13.0 0.00 0.00 0.00 79 1014.1
20260902031547 78 264 3.0 13.0 0.00 0.00 0.00 80 1014.0
20260902031047 78 259 5.0 17.0 0.00 0.00 0.00 80 1014.0
20260902030548 78 250 6.0 17.0 0.00 0.00 0.00 80 1013.9
20260902030046 78 238 5.0 13.0 0.00 0.00 0.00 80 1014.0
20260902025546 78 290 5.0 13.0 0.00 0.00 0.00 80 1014.0
20260902025047 78 242 4.0 12.0 0.00 0.00 0.00 80 1014.0
20260902024545 78 236 4.0 11.0 0.00 0.00 0.00 79 1014.0
20260902024046 78 228 4.0 13.0 0.00 0.00 0.00 79 1013.9
20260902023545 78 225 6.0 13.0 0.00 0.00 0.00 78 1013.9
20260902023045 78 218 3.0 9.0 0.00 0.00 0.00 77 1013.9
20260902022545 78 236 4.0 9.0 0.00 0.00 0.00 77 1013.9
20260902022044 78 208 2.0 5.0 0.00 0.00 0.00 75 1013.8
20260902021544 78 245 2.0 5.0 0.00 0.00 0.00 75 1013.7
20260902021044 78 196 1.0 5.0 0.00 0.00 0.00 74 1013.6
20260902020544 78 211 1.0 7.0 0.00 0.00 0.00 74 1013.6
20260902020053 78 208 3.0 7.0 0.00 0.00 0.00 73 1013.6
20260902015546 78 227 3.0 5.0 0.00 0.00 0.00 73 1013.6
20260902015048 78 218 2.0 5.0 0.00 0.00 0.00 73 1013.7
20260902014544 78 236 1.0 4.0 0.00 0.00 0.00 73 1013.7
20260902014045 78 84 1.0 8.0 0.00 0.00 0.00 73 1013.7
20260902013543 78 301 4.0 8.0 0.00 0.00 0.00 73 1013.6
20260902013043 79 243 3.0 6.0 0.00 0.00 0.00 72 1013.6
20260902012542 79 226 3.0 6.0 0.00 0.00 0.00 72 1013.6
20260902012044 79 235 2.0 6.0 0.00 0.00 0.00 72 1013.5
20260902011542 79 196 3.0 6.0 0.00 0.00 0.00 72 1013.4
20260902011044 79 254 2.0 7.0 0.00 0.00 0.00 71 1013.3
20260902010541 79 192 2.0 7.0 0.00 0.00 0.00 71 1013.3
20260902010042 80 250 3.0 7.0 0.00 0.00 0.00 71 1013.3
20260902005541 80 202 1.0 11.0 0.00 0.00 0.00 71 1013.2
20260902005042 80 240 4.0 11.0 0.00 0.00 0.00 71 1013.2
20260902004542 80 236 2.0 7.0 0.00 0.00 0.00 71 1013.2
20260902004041 80 264 2.0 9.0 0.00 0.00 0.00 71 1013.2
20260902003541 80 245 3.0 9.0 0.00 0.00 0.00 71 1013.2
20260902003040 80 272 4.0 9.0 0.00 0.00 0.00 71 1013.2
20260902002539 81 272 3.0 11.0 0.00 0.00 0.00 71 1013.1
20260902002041 81 218 4.0 12.0 0.00 0.00 0.00 71 1013.0
20260902001540 81 283 5.0 13.0 0.00 0.00 0.00 71 1013.0
20260902001039 81 218 4.0 13.0 0.00 0.00 0.00 71 1012.9
20260902000540 81 274 4.0 14.0 0.00 0.00 0.00 70 1012.9
20260902000044 81 283 5.0 14.0 0.00 0.00 0.00 70 1013.0
20260901235540 82 243 4.0 18.0 0.00 0.00 0.00 70 1013.0
20260901235036 82 211 6.0 23.0 0.00 0.00 0.00 70 1013.1
20260901234540 82 220 7.0 20.0 0.00 0.00 0.00 70 1013.3
20260901234039 82 267 9.0 17.0 0.00 0.00 0.00 71 1013.2
20260901233540 82 253 6.0 17.0 0.00 0.00 0.00 71 1013.2
20260901233035 82 295 6.0 18.0 0.00 0.00 0.00 70 1013.2
20260901232537 83 299 7.0 18.0 0.00 0.00 0.00 70 1013.3
20260901232035 83 255 9.0 22.0 0.00 0.00 0.00 70 1013.4
20260901231539 83 252 9.0 19.0 0.00 0.00 0.00 69 1013.5
20260901231035 83 243 7.0 18.0 0.00 0.00 0.00 68 1013.6
20260901230534 83 247 5.0 16.0 0.00 0.00 0.00 68 1013.7
20260901230045 83 240 8.0 16.0 0.00 0.00 0.00 67 1013.7
20260901225537 84 303 8.0 17.0 0.00 0.00 0.00 67 1013.8
20260901225135 84 223 5.0 18.0 0.00 0.00 0.00 66 1013.9
20260901224534 84 295 5.0 21.0 0.00 0.00 0.00 65 1013.9
20260901224033 84 240 7.0 21.0 0.00 0.00 0.00 65 1013.8
20260901223533 84 295 5.0 18.0 0.00 0.00 0.00 65 1013.8
20260901223041 85 264 6.0 23.0 0.00 0.00 0.00 65 1014.0
20260901222533 85 208 9.0 23.0 0.00 0.00 0.00 65 1014.1
20260901222032 85 250 6.0 23.0 0.00 0.00 0.00 64 1014.0
20260901221532 85 269 8.0 25.0 0.00 0.00 0.00 64 1014.0
20260901221033 85 254 9.0 30.0 0.00 0.00 0.00 66 1013.9
20260901220532 85 335 12.0 30.0 0.00 0.00 0.00 66 1013.9
20260901220042 85 250 15.0 26.0 0.00 0.00 0.00 66 1013.8
20260901215535 85 243 12.0 26.0 0.00 0.00 0.00 67 1013.7
20260901215029 86 186 10.0 27.0 0.00 0.00 0.00 67 1013.8
20260901214533 86 238 12.0 27.0 0.00 0.00 0.00 66 1013.6
20260901214030 86 235 8.0 22.0 0.00 0.00 0.00 67 1013.6
20260901213527 86 178 6.0 22.0 0.00 0.00 0.00 67 1013.5
20260901213027 86 266 12.0 24.0 0.00 0.00 0.00 67 1013.4
20260901212527 86 271 13.0 24.0 0.00 0.00 0.00 67 1013.4
20260901212028 87 355 12.0 22.0 0.00 0.00 0.00 67 1013.5
20260901211526 87 232 11.0 24.0 0.00 0.00 0.00 68 1013.6
20260901211026 87 224 11.0 24.0 0.00 0.00 0.00 68 1013.6
20260901210525 87 228 5.0 16.0 0.00 0.00 0.00 68 1013.6
20260901210028 87 264 8.0 15.0 0.00 0.00 0.00 68 1013.6
20260901205524 87 222 5.0 24.0 0.00 0.00 0.00 68 1013.6
20260901205022 87 243 6.0 24.0 0.00 0.00 0.00 68 1013.7
20260901204522 86 233 11.0 24.0 0.00 0.00 0.00 68 1013.6
20260901204021 87 238 11.0 19.0 0.00 0.00 0.00 69 1013.6
20260901203521 86 41 6.0 19.0 0.00 0.00 0.00 68 1013.6
20260901203040 87 264 7.0 18.0 0.00 0.00 0.00 69 1013.7
20260901202520 87 234 10.0 19.0 0.00 0.00 0.00 68 1013.7